Valdosta, GA

5:03 PM EDT on June 27, 2017 (GMT -0400)
Moody Air Force Base

Weather History for KVAD - March, 2014

Change the Weather History Date:

Sunday, March 16, 2014

  Actual Average Record
Temperature  
Mean Temperature 65 °F -  
Max Temperature 77 °F 71 °F 85 °F (2012)
Min Temperature 53 °F 50 °F 26 °F (2017)
Growing Degree Days 15 (Base 50)    
Moisture  
Dew Point 57 °F    
Average Humidity 89    
Maximum Humidity 100    
Minimum Humidity 51    
Precipitation  
Precipitation 2.24 in - - ()
Sea Level Pressure  
Sea Level Pressure 29.87 in    
Wind  
Wind Speed 5 mph (SSE)    
Max Wind Speed 31 mph    
Max Gust Speed 38 mph    
Visibility 5 miles    
Events Fog , Rain , Thunderstorm    
Averages and records for this station are not official NWS values.
T = Trace of Precipitation, MM = Missing Value Source: NWS Daily Summary

Daily Weather History Graph

Daily Weather History Graph

Search for Another Location

Airport or City:

Trip Planner

Search our weather history database for the weather conditions in past years. The results will help you decide how hot, cold, wet, or windy it might be!

Date:

Astronomy

Mar. 16, 2014 Rise Set
Actual Time 7:41 AM EDT 7:41 PM EDT
Civil Twilight 7:17 AM EDT 8:05 PM EDT
Nautical Twilight 6:49 AM EDT 8:33 PM EDT
Astronomical Twilight 6:21 AM EDT 9:02 PM EDT
Moon 7:54 PM EDT (3/16) 7:25 AM EDT (3/16)
Length of Visible Light 12h 48m
Length of Day
12h 00m
Full, 100% of the Moon is Illuminated
Mar 16
Full
Mar 16
Full
Mar 23
Last Quarter
Mar 30
New
Apr 7
First Quarter

Hourly Weather History & Observations

Time (EDT) Temp. Dew Point Humidity Pressure Visibility Wind Dir Wind Speed Gust Speed Precip Events Conditions
12:06 AM 60.8 °F 48.2 °F 63% 30.02 in 7.0 mi SSE 2.3 mph - N/A   Overcast
12:08 AM 59.0 °F 50.0 °F 72% 30.02 in 5.0 mi SSE 2.3 mph - N/A   Haze
12:10 AM 59.0 °F 50.0 °F 72% 30.02 in 4.0 mi SSE 2.3 mph - N/A   Haze
12:14 AM 59.0 °F 50.0 °F 72% 30.02 in 2.5 mi SE 2.3 mph - N/A   Haze
12:18 AM 57.2 °F 50.0 °F 77% 30.02 in 3.0 mi SE 2.3 mph - N/A   Haze
12:20 AM 57.2 °F 50.0 °F 77% 30.02 in 3.0 mi SE 1.2 mph - N/A   Haze
12:32 AM 57.2 °F 50.0 °F 77% 30.02 in 6.0 mi Calm Calm - N/A   Haze
12:34 AM 57.2 °F 50.0 °F 77% 30.02 in 7.0 mi Calm Calm - N/A   Partly Cloudy
12:40 AM 55.4 °F 50.0 °F 82% 30.02 in 10.0 mi Calm Calm - N/A   Partly Cloudy
12:58 AM 55.8 °F 50.4 °F 82% 30.03 in 9.0 mi Calm Calm - N/A   Clear
1:02 AM 57.2 °F 50.0 °F 77% 30.01 in 7.0 mi Calm Calm - N/A   Clear
1:08 AM 55.4 °F 50.0 °F 82% 30.02 in 5.0 mi Calm Calm - N/A   Haze
1:12 AM 55.4 °F 50.0 °F 82% 30.02 in 5.0 mi Calm Calm - N/A   Haze
1:18 AM 55.4 °F 50.0 °F 82% 30.01 in 5.0 mi Calm Calm - N/A   Haze
1:28 AM 55.4 °F 50.0 °F 82% 30.01 in 2.5 mi SSE 2.3 mph - N/A   Haze
1:34 AM 55.4 °F 50.0 °F 82% 30.01 in 3.0 mi SSE 2.3 mph - N/A   Haze
1:38 AM 55.4 °F 50.0 °F 82% 30.00 in 5.0 mi ENE 1.2 mph - N/A   Haze
1:42 AM 55.4 °F 50.0 °F 82% 30.01 in 4.0 mi Calm Calm - N/A   Haze
1:46 AM 55.4 °F 50.0 °F 82% 30.00 in 2.5 mi Calm Calm - N/A   Haze
1:48 AM 53.6 °F 50.0 °F 88% 30.00 in 2.0 mi Calm Calm - N/A   Haze
1:50 AM 53.6 °F 50.0 °F 88% 30.00 in 1.8 mi Calm Calm - N/A   Haze
1:52 AM 53.6 °F 50.0 °F 88% 30.00 in 2.0 mi Calm Calm - N/A   Haze
1:56 AM 53.6 °F 50.0 °F 88% 30.00 in 2.5 mi Calm Calm - N/A   Haze
1:58 AM 53.6 °F 50.0 °F 88% 30.01 in 4.0 mi Calm Calm - N/A   Haze
2:00 AM 53.6 °F 50.0 °F 88% 30.00 in 5.0 mi Calm Calm - N/A   Haze
2:04 AM 53.6 °F 50.0 °F 88% 30.00 in 8.0 mi Calm Calm - N/A   Mostly Cloudy
2:16 AM 53.6 °F 50.0 °F 88% 30.00 in 6.0 mi ESE 2.3 mph - N/A   Haze
2:20 AM 53.6 °F 50.0 °F 88% 30.00 in 5.0 mi ESE 2.3 mph - N/A   Haze
2:30 AM 53.6 °F 50.0 °F 88% 30.00 in 5.0 mi ESE 3.5 mph - N/A   Mostly Cloudy
2:32 AM 53.6 °F 50.0 °F 88% 30.00 in 5.0 mi ESE 4.6 mph - N/A   Mostly Cloudy
2:36 AM 53.6 °F 50.0 °F 88% 30.00 in 5.0 mi ESE 4.6 mph - N/A   Scattered Clouds
2:40 AM 53.6 °F 51.8 °F 94% 29.99 in 7.0 mi East 4.6 mph - N/A   Scattered Clouds
2:44 AM 55.4 °F 50.0 °F 82% 29.99 in 10.0 mi ESE 4.6 mph - N/A   Partly Cloudy
2:58 AM 54.9 °F 50.2 °F 84% 30.00 in 10.0 mi ESE 2.3 mph - N/A   Partly Cloudy
3:58 AM 55.6 °F 50.0 °F 81% 29.95 in 10.0 mi ESE 8.1 mph - N/A   Overcast
4:58 AM 55.2 °F 50.0 °F 83% 29.90 in 10.0 mi ESE 6.9 mph - N/A   Clear
5:14 AM 55.4 °F 50.0 °F 82% 29.89 in 9.0 mi SE 5.8 mph - N/A   Clear
5:24 AM 55.4 °F 50.0 °F 82% 29.89 in 9.0 mi SE 4.6 mph - N/A   Clear
5:58 AM 54.0 °F 49.3 °F 84% 29.89 in 10.0 mi ESE 3.5 mph - N/A   Clear
6:02 AM 53.6 °F 50.0 °F 88% 29.88 in 9.0 mi ESE 3.5 mph - N/A   Clear
6:14 AM 53.6 °F 50.0 °F 88% 29.87 in 10.0 mi SE 4.6 mph - N/A   Clear
6:28 AM 55.4 °F 50.0 °F 82% 29.87 in 9.0 mi SE 4.6 mph - N/A   Clear
6:38 AM 55.4 °F 50.0 °F 82% 29.87 in 10.0 mi SE 5.8 mph - N/A   Clear
6:58 AM 55.2 °F 50.0 °F 83% 29.87 in 10.0 mi SE 5.8 mph - N/A   Clear
7:58 AM 53.1 °F 50.7 °F 92% 29.89 in 10.0 mi South 4.6 mph - N/A   Clear
8:58 AM 57.7 °F 52.3 °F 82% 29.87 in 10.0 mi SSE 8.1 mph - N/A   Clear
9:58 AM 65.7 °F 54.7 °F 68% 29.85 in 10.0 mi SSE 18.4 mph - N/A   Partly Cloudy
10:59 AM 69.6 °F 56.7 °F 63% 29.84 in 10.0 mi South 24.2 mph 29.9 mph N/A   Partly Cloudy
11:58 AM 72.0 °F 57.4 °F 60% 29.81 in 10.0 mi South 25.3 mph 32.2 mph N/A   Scattered Clouds
12:58 PM 74.5 °F 57.0 °F 54% 29.79 in 10.0 mi South 25.3 mph 36.8 mph N/A   Mostly Cloudy
1:58 PM 77.4 °F 57.9 °F 51% 29.74 in 10.0 mi South 31.1 mph 38.0 mph N/A   Mostly Cloudy
2:39 PM 75.2 °F 59.0 °F 57% 29.78 in 10.0 mi WSW 23.0 mph 38.0 mph N/A   Mostly Cloudy
2:40 PM 75.2 °F 59.0 °F 57% 29.80 in 10.0 mi West 28.8 mph 38.0 mph N/A Rain Light Rain
2:44 PM 71.6 °F 59.0 °F 64% 29.81 in 1.8 mi West 20.7 mph 38.0 mph N/A Rain Light Rain
2:45 PM 71.6 °F 59.0 °F 64% 29.81 in 1.2 mi West 19.6 mph 38.0 mph N/A Rain Heavy Rain
2:47 PM 68.0 °F 60.8 °F 78% 29.81 in 0.8 mi West 17.3 mph 38.0 mph N/A Rain Heavy Rain
2:49 PM 66.2 °F 60.8 °F 83% 29.81 in 0.5 mi West 18.4 mph 38.0 mph N/A Rain Heavy Rain
2:51 PM 64.4 °F 60.8 °F 88% 29.82 in 0.5 mi West 16.1 mph 33.4 mph N/A Fog , Rain Heavy Rain
2:55 PM 62.6 °F 60.8 °F 94% 29.81 in 0.5 mi WSW 12.7 mph 24.2 mph N/A Fog , Rain Heavy Rain
2:57 PM 62.6 °F 60.8 °F 94% 29.81 in 0.8 mi West 12.7 mph 24.2 mph N/A Rain Heavy Rain
2:58 PM 63.3 °F 61.3 °F 93% 29.82 in 0.8 mi West 13.8 mph 24.2 mph 0.23 in Rain Heavy Rain
3:00 PM 62.6 °F 60.8 °F 94% 29.80 in 0.8 mi West 11.5 mph - N/A Rain Heavy Rain
3:02 PM 62.6 °F 62.6 °F 100% 29.80 in 1.0 mi West 12.7 mph 18.4 mph N/A Rain Heavy Rain
3:04 PM 62.6 °F 62.6 °F 100% 29.80 in 1.0 mi WSW 11.5 mph 18.4 mph N/A Rain Rain
3:06 PM 62.6 °F 62.6 °F 100% 29.80 in 1.2 mi WSW 12.7 mph 26.5 mph N/A Rain Rain
3:08 PM 62.6 °F 62.6 °F 100% 29.80 in 1.5 mi WSW 13.8 mph 26.5 mph N/A Rain Light Rain
3:10 PM 62.6 °F 62.6 °F 100% 29.80 in 2.0 mi WSW 11.5 mph 26.5 mph N/A Rain , Thunderstorm Light Rain
3:12 PM 62.6 °F 62.6 °F 100% 29.79 in 3.0 mi WSW 10.4 mph 26.5 mph N/A Rain , Thunderstorm Light Rain
3:58 PM 62.2 °F 61.9 °F 99% 29.78 in 9.0 mi SW 4.6 mph - 0.15 in Rain Light Rain
4:08 PM 62.6 °F 62.6 °F 100% 29.76 in 5.0 mi SW 2.3 mph - N/A Rain , Thunderstorm Light Thunderstorms and Rain
4:11 PM 62.6 °F 62.6 °F 100% 29.76 in 4.0 mi SSW 3.5 mph - N/A Rain , Thunderstorm Light Thunderstorms and Rain
4:23 PM 62.6 °F 62.6 °F 100% 29.78 in 8.0 mi SSW 9.2 mph - N/A Rain Light Rain
4:31 PM 62.6 °F 62.6 °F 100% 29.78 in 9.0 mi South 8.1 mph - N/A Rain , Thunderstorm Light Thunderstorms and Rain
4:54 PM 62.6 °F 62.6 °F 100% 29.77 in 3.0 mi South 6.9 mph - N/A Rain Rain
4:58 PM 61.9 °F 61.9 °F 100% 29.78 in 3.0 mi South 6.9 mph - 0.15 in Rain Rain
5:02 PM 62.6 °F 62.6 °F 100% 29.77 in 3.0 mi South 6.9 mph - N/A Rain , Thunderstorm Thunderstorms and Rain
5:08 PM 62.6 °F 62.6 °F 100% 29.77 in 3.0 mi South 5.8 mph - N/A Rain , Thunderstorm Thunderstorms and Rain
5:21 PM 62.6 °F 62.6 °F 100% 29.78 in 3.0 mi South 5.8 mph - N/A Rain Rain
5:31 PM 60.8 °F 60.8 °F 100% 29.77 in 3.0 mi South 4.6 mph - N/A Rain , Thunderstorm Rain
5:37 PM 60.8 °F 60.8 °F 100% 29.77 in 3.0 mi South 6.9 mph - N/A Rain , Thunderstorm Thunderstorms and Rain
5:39 PM 60.8 °F 60.8 °F 100% 29.76 in 3.0 mi SSE 5.8 mph - N/A Rain , Thunderstorm Light Thunderstorms and Rain
5:52 PM 60.8 °F 60.8 °F 100% 29.76 in 4.0 mi SSE 4.6 mph - N/A Rain Rain
5:58 PM 61.5 °F 61.5 °F 100% 29.78 in 4.0 mi SSE 5.8 mph - 0.20 in Rain , Thunderstorm Light Rain
6:10 PM 60.8 °F 60.8 °F 100% 29.77 in 6.0 mi SSE 8.1 mph - N/A Rain , Thunderstorm Light Thunderstorms and Rain
6:12 PM 60.8 °F 60.8 °F 100% 29.77 in 6.0 mi SSE 8.1 mph - N/A Rain , Thunderstorm Light Thunderstorms and Rain
6:38 PM 60.8 °F 60.8 °F 100% 29.78 in 4.0 mi SSE 5.8 mph - N/A Rain , Thunderstorm Rain
6:47 PM 60.8 °F 60.8 °F 100% 29.79 in 4.0 mi SSE 6.9 mph - N/A Rain , Thunderstorm Thunderstorms and Rain
6:58 PM 61.0 °F 61.0 °F 100% 29.79 in 4.0 mi SSE 6.9 mph - 0.22 in Rain , Thunderstorm Thunderstorms and Rain
7:02 PM 60.8 °F 60.8 °F 100% 29.78 in 4.0 mi South 8.1 mph - N/A Rain , Thunderstorm Rain
7:30 PM 60.8 °F 60.8 °F 100% 29.80 in 4.0 mi SSE 5.8 mph - N/A Rain Light Rain
7:36 PM 60.8 °F 60.8 °F 100% 29.80 in 6.0 mi SSE 5.8 mph - N/A Rain Rain
7:38 PM 60.8 °F 60.8 °F 100% 29.80 in 5.0 mi SE 5.8 mph - N/A Rain Rain
7:42 PM 60.8 °F 60.8 °F 100% 29.79 in 5.0 mi SE 6.9 mph - N/A Rain Rain
7:50 PM 60.8 °F 60.8 °F 100% 29.80 in 5.0 mi SSE 5.8 mph - N/A Rain Rain
7:58 PM 60.6 °F 60.6 °F 100% 29.81 in 4.0 mi SE 5.8 mph - 0.29 in Rain Rain
8:24 PM 60.8 °F 60.8 °F 100% 29.81 in 4.0 mi South 6.9 mph - N/A Rain Rain
8:28 PM 60.8 °F 60.8 °F 100% 29.81 in 5.0 mi South 8.1 mph - N/A Rain Rain
8:32 PM 60.8 °F 60.8 °F 100% 29.81 in 5.0 mi South 8.1 mph - N/A Rain Rain
8:44 PM 60.8 °F 60.8 °F 100% 29.78 in 5.0 mi East 4.6 mph - N/A Rain Rain
8:54 PM 60.8 °F 60.8 °F 100% 29.79 in 5.0 mi SE 4.6 mph - N/A Rain Light Rain
8:58 PM 60.3 °F 60.3 °F 100% 29.80 in 7.0 mi SE 4.6 mph - 0.26 in Rain Light Rain
9:00 PM 60.8 °F 60.8 °F 100% 29.79 in 7.0 mi SE 4.6 mph - N/A Rain Light Rain
9:02 PM 60.8 °F 60.8 °F 100% 29.79 in 7.0 mi SE 4.6 mph - N/A Rain Light Rain
9:14 PM 60.8 °F 60.8 °F 100% 29.79 in 7.0 mi SE 5.8 mph - N/A Rain Light Rain
9:26 PM 60.8 °F 60.8 °F 100% 29.79 in 5.0 mi SE 5.8 mph - N/A Rain Rain
9:50 PM 60.8 °F 60.8 °F 100% 29.80 in 5.0 mi SSE 8.1 mph - N/A Rain Light Rain
9:58 PM 60.3 °F 60.3 °F 100% 29.80 in 5.0 mi SE 5.8 mph - 0.22 in Rain Light Rain
10:14 PM 60.8 °F 60.8 °F 100% 29.80 in 5.0 mi SE 8.1 mph - N/A Rain Light Rain
10:16 PM 60.8 °F 60.8 °F 100% 29.80 in 5.0 mi ESE 6.9 mph - N/A Rain Light Rain
10:30 PM 60.8 °F 60.8 °F 100% 29.80 in 5.0 mi ESE 2.3 mph - N/A Rain Rain
10:44 PM 60.8 °F 60.8 °F 100% 29.79 in 4.0 mi East 2.3 mph - N/A Rain Rain
10:54 PM 60.8 °F 60.8 °F 100% 29.81 in 5.0 mi SE 2.3 mph - N/A Rain Light Rain
10:58 PM 60.1 °F 60.1 °F 100% 29.82 in 6.0 mi SSE 3.5 mph - 0.23 in Rain Light Rain
11:02 PM 60.8 °F 60.8 °F 100% 29.81 in 5.0 mi East 3.5 mph - N/A Rain Rain
11:28 PM 60.8 °F 60.8 °F 100% 29.81 in 4.0 mi SE 2.3 mph - N/A Rain Rain
11:58 PM 59.7 °F 59.7 °F 100% 29.80 in 5.0 mi East 5.8 mph - 0.29 in Rain Rain